Regional Weather Roundup
Issued by NWS

Home | Current Version | Previous Version | Text Only | Print | Product List | Glossary On
Versions: 1 2 3 4 5 6 7 8 9 10 11 12 13 14 15 16 17 18 19 20 21 22 23 24 25 26 27 28 29 30 31 32 33 34 35 36 37 38 39 40 41 42 43 44 45 46 47 48 49 50
000
ASUS46 KSTO 271704
RWRCA

NORTHERN AND CENTRAL CA REGIONAL WEATHER ROUNDUP
NATIONAL WEATHER SERVICE SACRAMENTO CA
1000 AM PDT WED MAY 27 2015

NOTE: FAIR INDICATES FEW OR NO CLOUDS BELOW 12,000 FEET WITH NO
SIGNIFICANT WEATHER AND/OR OBSTRUCTIONS TO VISIBILITY.

CAZ001-003-271800-
NORTHWEST AREA

CITY           SKY/WX    TMP DP  RH WIND       PRES   REMARKS
CRESCENT CITY  CLOUDY    52  49  89 NW5       30.05F
UKIAH          SUNNY     60  50  69 CALM      30.00F
$$

CAZ006-505>513-271800-
BAY AREA

CITY           SKY/WX    TMP DP  RH WIND       PRES   REMARKS
SANTA ROSA     CLOUDY    56  49  77 SE5       30.01S
SAN RAFAEL     N/A       52  MM  MM MISG
NAPA           CLOUDY    54  48  80 W7        30.03S
CONCORD        PTSUNNY   61  48  62 S9        30.02S
OAKLAND CITY   N/A       55  MM  MM MISG
OAKLAND        CLOUDY    58  49  72 W10       30.04S
SAN FRAN CITY  N/A       54  MM  84 MISG
SAN FRAN ARPT  PTSUNNY   59  49  69 SW10      30.04R
LIVERMORE      MOSUNNY   63  49  60 NW9       30.01S
HAYWARD        CLOUDY    58  49  72 NW8       30.03S
REDWOOD CITY   N/A       MM  MM  MM MISG
MOFFETT ARPT   MOSUNNY   63  51  65 NE7       30.03S
SAN JOSE ARPT  MOSUNNY   62  48  60 VRB3      30.02S
$$
CAZ034-037-514>518-271800-
CENTRAL COAST

CITY           SKY/WX    TMP DP  RH WIND       PRES   REMARKS
WATSONVILLE    CLOUDY    56  49  77 S7        30.06R
SALINAS        CLOUDY    57  49  74 MISG      30.05S
MONTEREY       CLOUDY    56  49  77 VRB5      30.06R
SAN LUIS OBISP CLOUDY    60  49  66 N7        30.04S
SANTA MARIA    CLOUDY    59  50  72 N6        30.04S
$$
CAZ015-016-271800-
NORTHERN SACRAMENTO VALLEY

CITY           SKY/WX    TMP DP  RH WIND       PRES   REMARKS
REDDING        SUNNY     73  49  42 CALM      29.95F
RED BLUFF      SUNNY     71  51  49 E3        29.97F
OROVILLE       SUNNY     67  51  56 S5        29.99S
$$
CAZ016>018-271800-
SOUTHERN SACRAMENTO VALLEY

CITY           SKY/WX    TMP DP  RH WIND       PRES   REMARKS
AUBURN         SUNNY     70  52  52 W7        29.99S
BEALE AFB      SUNNY     65  52  62 S9        29.96F
LINCOLN        FAIR      64  50  59 S8        29.98S
MARYSVILLE     SUNNY     64  51  62 S7        29.98F
SAC INTL ARPT  MOSUNNY   63  53  70 S3        29.98S
MATHER AIRPORT MOSUNNY   63  50  63 S3        29.99F
DOWNTOWN SAC   N/A       64  MM  MM MISG
SAC EXEC ARPT  MOSUNNY   64  52  64 VRB7      29.99S
VACAVILLE      SUNNY     65  52  62 S7        30.00S
TRAVIS AFB     SUNNY     60  50  68 SW20      29.98S
$$
CAZ019>021-271800-
SAN JOAQUIN VALLEY

CITY           SKY/WX    TMP DP  RH WIND       PRES   REMARKS
STOCKTON       SUNNY     66  53  63 NW7       29.99S
MODESTO        SUNNY     66  49  54 NW9       29.98S
MERCED         SUNNY     65  51  60 NW10      29.97S
LEMOORE        SUNNY     70  47  43 NW10      29.98S
FRESNO         SUNNY     70  50  49 W6        29.97S
HANFORD        SUNNY     71  49  45 VRB7      29.97S
PORTERVILLE    SUNNY     70  52  52 S8        29.98S
BAKERSFIELD    SUNNY     70  47  43 SW7       29.97F
$$
CAZ011-012-071-271800-
NORTHERN MOUNTAINS

CITY           SKY/WX    TMP DP  RH WIND       PRES   REMARKS
YREKA          SUNNY     68  43  40 VRB3      30.03F
MOUNT SHASTA   SUNNY     68  42  38 CALM      30.03F
ALTURAS        SUNNY     62  43  49 S3        30.07S
$$
CAZ011-012-071-271800-
SIERRA NEVADA MTNS

CITY           SKY/WX    TMP DP  RH WIND       PRES   REMARKS
BLUE CANYON    SUNNY     61  38  42 S8        30.12S
TRUCKEE        SUNNY     55  41  58 CALM      30.13F
TAHOE VLY ARPT SUNNY     62  42  47 NE8       30.13F
MAMMOTH LAKES  FAIR      63  41  45 SE5       30.16F
$$



USA.gov is the U.S. government's official web portal to all federal, state and local government web resources and services.